Content
SEND FEEDBACK

Daily
Averages
Monthly
Summary
United States of America

BERKELEY, MISSOURI


Home > North America > United States > Missouri
Elevation: 172 meters     Latitude: 38 45N     Longitude: 090 22W

WEATHER
 
SELECT A DAY
Number of Records: 206,532;   Date Range: 1/1/95 - 10/21/14
 
SHARE

PRINT THIS DATA

[ ← Previous Day ]
WEATHER ALMANAC - 8 APRIL, 2013
[ Next Day → ]
[ °F ]   °C
Weather ElementAverageHighLow
Temperature21.3 °C26.1 °C (2:51 pm)17.2 °C (4:51 am)
Dewpoint12.6 °C14.4 °C (1:51 pm)11.1 °C (4:51 am)
Humidity58.2 %75 % (12:51 am)45 % (5:51 pm)
Barometer1008.5 hPa1011.9 hPa (11:51 pm)1006.1 hPa (5:51 am)
Wind Speed19.2 km/h27.8 km/h (1:51 am)
Wind Gust46.3 km/h (12:51 am)
Weather ElementAverage
Visibility16.1 km
Wind DirectionSSE (171.7 °)

Weather ElementTotal
Precipitation---
Cooling Degree Days3.3 (Base 18.3)
Growing Degree Days11.7 (Base 10)
Averaged from 23 records on 8 April, 2013
WEATHER CONDITIONS BREAKOUT
WIND DIRECTION BREAKOUT
WEATHER BY HOUR - 8 APRIL, 2013
[ °F ]   °C
Local TimeTemperatureDewpointHumidityBarometerVisibilityWind DirectionWind SpeedGust SpeedPrecipitationEventsConditions
12:51 AM17.8 °C13.3 °C75 %1008.5 hPa16.1 kmSSW (210°)24.1 km/h46.3 km/h0 mmOvercast
1:51 AM17.8 °C12.8 °C73 %1007.8 hPa16.1 kmSouth (190°)27.8 km/h44.4 km/hMostly Cloudy
2:51 AM17.8 °C11.7 °C67 %1006.8 hPa16.1 kmSouth (180°)25.9 km/h38.9 km/hMostly Cloudy
3:51 AM17.8 °C11.7 °C67 %1006.8 hPa16.1 kmSSW (200°)20.4 km/h33.3 km/hScattered Clouds
4:51 AM17.2 °C11.1 °C67 %1006.8 hPa16.1 kmSouth (190°)24.1 km/hScattered Clouds
5:51 AM17.2 °C11.1 °C67 %1006.1 hPa16.1 kmSouth (190°)20.4 km/h33.3 km/hMostly Cloudy
6:51 AM17.2 °C11.1 °C67 %1007.1 hPa16.1 kmSSW (200°)18.5 km/hMostly Cloudy
7:51 AM18.3 °C11.7 °C65 %1007.5 hPa16.1 kmSSW (210°)16.7 km/hMostly Cloudy
8:51 AM18.9 °C11.7 °C63 %1008.5 hPa16.1 kmSSW (210°)16.7 km/hOvercast
9:51 AM20.6 °C12.2 °C58 %1008.8 hPa16.1 kmSSW (210°)18.5 km/hMostly Cloudy
10:51 AM22.2 °C12.8 °C55 %1009.5 hPa16.1 kmSW (230°)20.4 km/hMostly Cloudy
11:51 AM24.4 °C13.9 °C52 %1008.8 hPa16.1 kmWSW (240°)11.1 km/hScattered Clouds
12:51 PM24.4 °C13.9 °C52 %1008.5 hPa16.1 kmCalmMostly Cloudy
1:51 PM25 °C14.4 °C52 %1008.1 hPa16.1 kmVariable7.4 km/hMostly Cloudy
2:51 PM26.1 °C13.9 °C47 %1007.8 hPa16.1 kmSSE (160°)25.9 km/h40.7 km/hMostly Cloudy
3:51 PM25.6 °C13.3 °C46 %1007.5 hPa16.1 kmSouth (170°)22.2 km/h37 km/hMostly Cloudy
5:51 PM25 °C12.2 °C45 %1008.5 hPa16.1 kmSouth (190°)20.4 km/hMostly Cloudy
6:51 PM24.4 °C12.8 °C48 %1008.8 hPa16.1 kmSSE (150°)22.2 km/hMostly Cloudy
7:51 PM23.9 °C12.2 °C48 %1009.1 hPa16.1 kmSouth (170°)18.5 km/hMostly Cloudy
8:51 PM22.8 °C12.8 °C53 %1010.2 hPa16.1 kmSSE (150°)16.7 km/hMostly Cloudy
9:51 PM22.2 °C13.3 °C57 %1010.8 hPa16.1 kmSSE (150°)20.4 km/hOvercast
10:51 PM21.7 °C12.8 °C57 %1010.8 hPa16.1 kmSouth (170°)24.1 km/h31.5 km/hMostly Cloudy
11:51 PM22 °C13 °C57 %1011.9 hPa16.1 kmSouth (180°)16.7 km/hOvercast
Hourly data recorded from KSTL, located 0 kilometers away from Berkeley, Missouri







STORIES FROM OUR PARTNERS